Location: Newark
(49.7697°N, 2.7094°E)
Time: 03:33:04
(UTC+00:00)

VELOX 1 - Visible Passes

Search period start: 02 April 2020 00:00
Search period end: 12 April 2020 00:00
Orbit: 628 x 644 km, 98.3° (Epoch: 01 April)

Date Brightness Start Highest point End Pass type
(mag) Time Alt. Az. Time Alt. Az. Time Alt. Az.
02 Apr ? 00:05:14 14° NE 00:05:14 14° NE 00:06:55 10° NNE visible
02 Apr ? 01:42:44 27° NNW 01:42:44 27° NNW 01:44:48 10° NNW visible
03 Apr ? 00:27:34 19° NE 00:27:34 19° NE 00:29:52 10° NNE visible
03 Apr ? 02:05:04 24° NNW 02:05:04 24° NNW 02:06:57 10° NNW visible
04 Apr ? 00:49:55 26° NNE 00:49:55 26° NNE 00:52:30 10° N visible
04 Apr ? 02:27:23 19° NW 02:27:23 19° NW 02:28:58 10° NNW visible
05 Apr ? 01:12:15 34° NNE 01:12:15 34° NNE 01:14:58 10° N visible
05 Apr ? 02:49:44 14° NW 02:49:44 14° NW 02:50:43 10° NW visible
05 Apr ? 23:57:05 12° ENE 23:57:14 12° NE 23:59:00 10° NNE visible
06 Apr ? 01:34:35 37° N 01:34:35 37° N 01:37:18 10° NNW visible
07 Apr ? 00:19:25 18° NE 00:19:25 18° NE 00:22:10 10° NNE visible
07 Apr ? 01:56:55 34° NNW 01:56:55 34° NNW 01:59:31 10° NNW visible
08 Apr ? 00:41:45 26° NE 00:41:45 26° NE 00:44:53 10° N visible
08 Apr ? 02:19:14 27° NW 02:19:14 27° NW 02:21:35 10° NNW visible
09 Apr ? 01:04:05 37° NE 01:04:05 37° NE 01:07:25 10° N visible
09 Apr ? 02:41:35 19° WNW 02:41:35 19° WNW 02:43:26 10° NW visible
09 Apr ? 23:48:58 10° ENE 23:49:52 11° NE 23:50:45 10° NE visible
10 Apr ? 01:26:25 49° NNE 01:26:25 49° NNE 01:29:48 10° N visible
10 Apr ? 03:03:54 13° WNW 03:03:54 13° WNW 03:04:56 10° NW visible
11 Apr ? 00:11:16 16° ENE 00:11:46 16° ENE 00:14:25 10° NNE visible
11 Apr ? 01:48:45 49° NNW 01:48:45 49° NNW 01:52:03 10° NNW visible
